This is the latest recevied weather packets stored in our database for station/object K8JMX-13. If no packets are shown the sender has not sent any weather packets the latest 10 day(s).
| Time | Temp. | Humidity | Pressure | Rain* | Wind** | Luminosity | Snow |
|---|---|---|---|---|---|---|---|
| 1777366820 | 13.89° C | 92% | 1006.4 hPa | 0 mm | - | 0 W/m² | - |
| 1777366515 | 13.89° C | 92% | 1006.5 hPa | 0 mm | - | 0 W/m² | - |
| 1777366210 | 14.44° C | 93% | 1006.7 hPa | 0 mm | - | 0 W/m² | - |
| 1777365907 | 14.44° C | 93% | 1006.3 hPa | 0 mm | - | 0 W/m² | - |
| 1777365603 | 14.44° C | 93% | 1005.9 hPa | 0 mm | - | 0 W/m² | - |
| 1777365302 | 14.44° C | 93% | 1006.4 hPa | 0 mm | - | 0 W/m² | - |
| 1777365001 | 14.44° C | 93% | 1006 hPa | 0 mm | - | 0 W/m² | - |
| 1777364697 | 15° C | 93% | 1005.4 hPa | 0 mm | - | 0 W/m² | - |
| 1777364392 | 15° C | 93% | 1004.6 hPa | 0 mm | - | 0 W/m² | - |
| 1777364088 | 15° C | 93% | 1004.2 hPa | 1.78 mm | - | 0 W/m² | - |
| 1777363785 | 15° C | 93% | 1004.7 hPa | 1.78 mm | - | 0 W/m² | - |
| 1777363482 | 15° C | 92% | 1006.9 hPa | 1.27 mm | - | 0 W/m² | - |
| 1777363179 | 15° C | 92% | 1009.6 hPa | 1.27 mm | - | 0 W/m² | - |
| 1777362875 | 15° C | 92% | 1010 hPa | 0 mm | - | 0 W/m² | - |
| 1777362573 | 15° C | 92% | 1010.1 hPa | 0 mm | - | 0 W/m² | - |
| 1777362271 | 15° C | 92% | 1010.5 hPa | 3.05 mm | - | 0 W/m² | - |
| 1777361968 | 15° C | 92% | 1010.6 hPa | 4.32 mm | - | 0 W/m² | - |
| 1777361665 | 15° C | 92% | 1010.8 hPa | 7.87 mm | - | 0 W/m² | - |
| 1777361362 | 15° C | 91% | 1010.8 hPa | 4.83 mm | - | 0 W/m² | - |
| 1777361059 | 15° C | 91% | 1010.7 hPa | 1.78 mm | - | 0 W/m² | - |
| 1777360757 | 15° C | 91% | 1010.7 hPa | 1.27 mm | - | 0 W/m² | - |
| 1777360454 | 15° C | 91% | 1010.4 hPa | 3.05 mm | - | 0 W/m² | - |
| 1777360151 | 15° C | 91% | 1010.4 hPa | 4.83 mm | - | 0 W/m² | - |
| 1777359848 | 15.56° C | 91% | 1010.3 hPa | 10.16 mm | - | 0 W/m² | - |
| 1777359545 | 15.56° C | 90% | 1010.9 hPa | 16.76 mm | - | 0 W/m² | - |
* Rain latest hour (hover to see other rain measurements)
** Current wind speed in m/s (hover to see current wind gust speed)